Find Starlink 38368

NORAD ID: 100503 Int'l Des: 2026-197 Owner: SPXS Country: US Constellation: starlink operational

Aktuelle Ansicht

3D-Globus wird geladen...

About Starlink 38368

Starlink 38368 (NORAD 100503) is a starlink constellation satellite launched Aug 25, 2026 by SPXS of US. with a mass of 575.00 kg.

Nächste Überflüge

Passes for default location (London). Set your location on the main map for personalized predictions.

Höhenverlauf

Loading altitude history...

Zweizeiliger Elementsatz

1 A0503U 26197B 26251.47828768 .00180984 00000-0 10611-2 0 9990
2 A0503 69.9997 155.8222 0003885 267.6139 92.4616 15.77619884 2097
Epoch: 8. Sept. 2026 • Age: 8 hours

Aktueller Status

Höhe 348.2 km
Apogäum / Perigäum N/A
Geschwindigkeit 7.70 km/s
Subsatellitenpunkt 57.05°N, 89.33°W
Startdatum 25. Aug. 2026
Alter 14 days
Typ internet

Technische Details

Klassifizierung Payload
Masse 575.00 kg
Trockenmasse 530.00 kg
Gesamtmasse 575.00 kg
Länge 0.30 m
Durchmesser 4.10 m
Spannweite 29.00 m
Form Box + pan
Hersteller SPXS
Bus-Typ Starlink V2MO
Phasenstatus In Orbit
Besitzer/Staat SPXS/US

Most Searched